TIME,DELAY(SENSOR),PRES,OXYGEN,RAWTEMP,T(OPTODE),TCPHASE,FLUOR,BETA(BETA700),BETA(BETA412),BETA(BETA440),CDOM,C(CSC),ED(ED412.20),ED(ED444.00),ED(ED489.60),ED(ED554.30),LU(LU412.10),LU(LU443.90),LU(LU489.70),LU(LU554.70),COMP,TILTX,TILTY,CHECK
1356836495,5811,895.2399902343750000,34.6467895507812500,562.1649169921875000,4.4187831878662110,56.3609809875488300,55,100,100,78,82,15550,0,0,0,0,2147120832,2147774509,2147570697,2147571620,3334,2,13,50091
1356840091,5811,971.3800048828125000,39.8455810546875000,569.0848999023438000,4.2039952278137210,55.6328086853027340,56,98,101,78,82,15553,0,0,0,0,2147125092,2147778742,2147567917,2147569929,3473,2,13,1977
1356843691,5809,981.7000122070312000,40.2386093139648440,569.2509765625000000,4.1988329887390140,55.5738410949707000,54,99,100,78,83,15552,0,0,0,0,2147126134,2147775177,2147571776,2147571181,277,2,13,23067
1356847291,5808,990.3300170898438000,40.8320808410644500,570.6994018554688000,4.1538238525390625,55.4973487854003900,56,98,100,77,81,15553,0,0,0,0,2147126052,2147769188,2147573202,2147569974,3231,3,13,50416
1356850891,5811,998.2600097656250000,39.4926109313964840,569.3563842773438000,4.1955590248107910,55.6838188171386700,55,99,101,78,82,15551,0,0,0,0,2147125339,2147770934,2147572690,2147568905,45,3,13,51861
1356854491,5810,997.8499755859375000,39.2625617980957000,569.4061279296875000,4.1940140724182130,55.7208595275878900,55,100,99,78,82,15550,0,0,0,0,2147125376,2147772041,2147571538,2147567936,293,3,13,52808
1356858091,5808,994.8099975585938000,39.4506607055664060,570.6224975585938000,4.1562142372131350,55.7014503479003900,55,97,99,78,81,15548,0,0,0,0,2147125842,2147778998,2147578971,2147566939,3355,3,13,54513
1356861691,5808,997.7800292968750000,39.8511009216308600,570.4442749023438000,4.1617531776428220,55.6410484313964840,55,97,101,78,82,15550,0,0,0,0,2147122688,2147769005,2147569453,2147565924,3290,3,13,13438
1356865291,5807,993.7100219726562000,40.5904617309570300,571.1083984375000000,4.1411108970642090,55.5438003540039060,54,100,101,77,83,15542,0,0,0,0,2147121609,2147776704,2147573110,2147571904,150,2,13,20921
1356868891,5810,1003.7600097656250000,40.9497718811035160,571.1516113281250000,4.1397690773010250,55.4844703674316400,54,99,100,78,82,15541,0,0,0,0,2147121170,2147771300,2147576804,2147570468,53,3,13,63081
1356872491,5812,1002.7399902343750000,40.8488998413085940,571.0189208984375000,4.1438918113708500,55.5001296997070300,54,97,100,78,82,15543,0,0,0,0,2147121636,2147774930,2147569874,2147569865,59,3,13,64162
1356876091,5808,994.3900146484375000,40.8550910949707000,571.7708740234375000,4.1205182075500490,55.5053901672363300,55,99,101,78,82,15540,0,0,0,0,2147123200,2147774948,2147572425,2147571776,396,2,13,166
1356879691,5809,996.6699829101562000,41.3903198242187500,571.9760131835938000,4.1141400337219240,55.4316101074218750,55,98,99,78,83,15540,0,0,0,0,2147122148,2147772909,2147572635,2147570532,3190,3,13,31632
1356883291,5809,993.7999877929688000,41.4025115966796900,572.1702880859375000,4.1080989837646480,55.4290504455566400,55,98,101,78,81,15542,0,0,0,0,2147121261,2147776411,2147576731,2147570816,3511,3,13,7996
1356886891,5810,994.6300048828125000,41.8060798645019500,572.6464843750000000,4.0932898521423340,55.3789596557617200,55,98,100,78,82,15542,0,0,0,0,2147122825,2147774582,2147575734,2147572525,143,2,13,41249
1356890491,5811,1000.7500000000000000,41.9266281127929700,572.3314819335938000,4.1030850410461430,55.3541412353515600,55,97,101,78,82,15539,0,0,0,0,2147123492,2147777865,2147567296,2147570989,3223,2,13,55709
1356894091,5811,999.5399780273438000,41.5692710876464840,571.9118041992188000,4.1161351203918460,55.4050407409668000,55,98,100,77,83,15538,0,0,0,0,2147123291,2147768987,2147575424,2147567442,3458,2,13,37655
1356897691,5809,1002.0399780273438000,41.7067413330078100,572.3499755859375000,4.1025099754333500,55.3866386413574200,55,99,100,77,82,15540,0,0,0,0,2147122304,2147772662,2147569801,2147569810,3546,3,13,55395
1356901291,5811,1001.7999877929688000,41.2881011962890600,571.9494018554688000,4.1149649620056150,55.4454803466796900,55,98,100,78,81,15539,0,0,0,0,2147123419,2147774646,2147573540,2147568301,3016,3,13,22766
1356904891,5808,1004.2800292968750000,41.6455001831054700,571.8322753906250000,4.1186051368713380,55.3894195556640600,55,97,102,78,83,15537,0,0,0,0,2147123757,2147773065,2147574107,2147567753,3583,3,13,5634
1356908491,5811,1004.6199951171875000,41.8163681030273440,572.0867919921875000,4.1106948852539060,55.3713493347168000,55,98,100,79,82,15538,0,0,0,0,2147122843,2147772681,2147572150,2147568630,3269,3,13,59657
1356912091,5810,1002.9799804687500000,41.5154304504394500,572.0936279296875000,4.1104807853698730,55.4165115356445300,54,98,100,76,82,15534,0,0,0,0,2147120813,2147776493,2147571501,2147566912,3521,2,13,53335
1356915691,5807,1004.3499755859375000,41.4072608947753900,571.8859863281250000,4.1169362068176270,55.4304199218750000,55,99,100,77,82,15533,0,0,0,0,2147120530,2147774262,2147576475,2147573266,276,2,13,63260
1356919291,5811,1010.4000244140625000,41.2552909851074200,571.8154296875000000,4.1191329956054690,55.4445114135742200,55,99,100,78,83,15533,0,0,0,0,2147120621,2147773796,2147571456,2147572379,126,3,13,17802
1356922891,5810,1012.9600219726562000,41.0333786010742200,571.0197143554688000,4.1438670158386230,55.4739494323730500,54,99,101,78,83,15535,0,0,0,0,2147120667,2147771062,2147574016,2147572032,3555,2,13,61392
1356926491,5812,1007.8599853515625000,41.5643882751464840,571.9453125000000000,4.1150951385498050,55.4029998779296900,55,98,99,78,83,15538,0,0,0,0,2147124836,2147768411,2147569234,2147568786,98,3,13,37844
1356930091,5808,1001.0399780273438000,41.3739585876464840,572.8178100585938000,4.0879631042480470,55.4414596557617200,55,98,100,77,83,15535,0,0,0,0,2147122624,2147773339,2147575652,2147573275,469,2,13,10083
1356933691,5810,1004.0800170898438000,41.4348907470703100,572.5695800781250000,4.0956802368164060,55.4264907836914060,55,98,100,78,82,15529,0,0,0,0,2147120539,2147774418,2147572534,2147569014,32,3,13,22838
1356937291,5812,1012.4799804687500000,41.5345916748046900,571.7399291992188000,4.1214790344238280,55.4052314758300800,55,99,101,77,83,15523,0,0,0,0,2147122688,2147772516,2147571940,2147570898,50,3,13,20346
1356940891,5808,1013.7199707031250000,40.4862709045410160,570.7683715820312000,4.1516780853271480,55.5494995117187500,54,97,101,78,81,15520,0,0,0,0,2147120393,2147776274,2147570715,2147571529,309,2,13,59632
1356944491,5812,1005.9099731445312000,40.3414611816406250,570.7664184570312000,4.1517429351806640,55.5710792541503900,53,98,101,78,82,15520,0,0,0,0,2147125010,2147774683,2147569654,2147571172,1117,3,13,6858
1356948091,5808,1014.4099731445312000,41.1528015136718750,571.6077270507812000,4.1255888938903810,55.4595794677734400,55,100,100,78,82,15504,0,0,0,0,2147120731,2147778432,2147576365,2147570532,104,3,13,64119
1356951691,5811,1011.9500122070312000,40.9859390258789060,571.5897216796875000,4.1261501312255860,55.4894485473632800,55,97,99,79,81,15502,0,0,0,0,2147126107,2147772306,2147574500,2147569910,140,3,13,56332
1356955291,5809,1006.0000000000000000,41.3574104309082000,572.3472900390625000,4.1025938987731930,55.4361610412597660,55,99,99,79,83,15504,0,0,0,0,2147126491,2147777947,2147569280,2147569837,2440,3,13,29568
1356958891,5809,1006.8699951171875000,41.4031600952148440,572.7252807617188000,4.0908370018005370,55.4395217895507800,54,102,101,78,82,15506,0,0,0,0,2147122011,2147767606,2147573851,2147569691,157,2,13,34811
1356962491,5808,1002.5200195312500000,41.3782615661621100,572.6936035156250000,4.0918250083923340,55.4402198791503900,55,98,101,79,81,15505,0,0,0,0,2147124644,2147770797,2147570267,2147574765,464,2,13,21894
1356966091,5810,1003.4299926757812000,41.9308013916015600,573.1644897460938000,4.0771789550781250,55.3670692443847660,55,98,100,78,82,15505,0,0,0,0,2147126381,2147773010,2147577691,2147571428,141,2,13,24993
1356969691,5812,998.7199707031250000,41.9777297973632800,573.2600708007812000,4.0742068290710450,55.3605003356933600,54,99,100,78,82,15505,0,0,0,0,2147118747,2147771328,2147575497,2147568694,225,2,13,11590
1356973291,5811,995.7700195312500000,42.0627708435058600,573.4218139648438000,4.0691761970520020,55.3481712341308600,55,99,101,77,83,15499,0,0,0,0,2147121270,2147778441,2147575478,2147568822,336,2,13,7831
1356976891,5808,1002.1199951171875000,42.1975784301757800,573.5911865234375000,4.0639081001281740,55.3277282714843750,55,98,100,78,82,15501,0,0,0,0,2147124050,2147773504,2147577115,2147569865,3402,2,13,44786
1356980491,5807,1004.8400268554688000,42.1894111633300800,573.2542724609375000,4.0743870735168460,55.3253288269043000,55,98,101,79,83,15502,0,0,0,0,2147124361,2147777115,2147570870,2147572196,197,3,13,19221
1356981355,5808,1005.3699951171875000,41.9789199829101560,573.2344970703125000,4.0750031471252440,55.3595695495605500,54,101,100,78,81,15498,0,0,0,0,2147124699,2147770240,2147574281,2147566445,93,3,13,30543
